Retour au catalogue

BREEZE-M DEB

TANK

ActifHEO
NORAD 34712·DEBRIS·🇷🇺 Russia

Lancé Apr 3, 2009 depuis Baikonur Cosmodrome

Loading…

Prochains Passages (prochaines 24 heures)

TLE

FraisSource: Space-Track

Époque: Sep 14, 2026, 03:24 UTC

1 34712U 09016C   26257.14218580  .00001325  00000-0  53071-3 0  9994
2 34712  45.9445 160.6765 4906143 339.7740   6.1542  5.69371972348564

Suivez BREEZE-M DEB en temps réel avec AllMySat

Download on the App Store